Weather in Biala Podlaska

Poland     52°02′01″N   23°07′09″E
temp.,
°C
wind,
m/s
gust,
m/s
humid.,
%
clouds,
%
prec.,
mm/h
press.,
hPa
HPBL,
m
2 august, mon
mon223:00+18e1194100 2.3 100440
02:00+17se1398100 18.2 1001251
05:00+16wnw61298100 6.8 1002465
08:00+15wnw7129394 8.9 1006705
11:00+15wsw61092100 0.3 1008639
14:00+20w7970100 0.8 10091280
17:00+20w686839 1.2 10091234
20:00+16wsw38845 1.8 1010177
3 august, tue
tue323:00+15wsw488686 0.0 1011151
02:00+13wsw49852 0.0 1013199
05:00+14wsw410823 0.0 1013281
08:00+17w48670 0.0 1014484
11:00+21w574633 0.0 10152053
14:00+23w574015 0.0 10142334
17:00+23wsw574214 0.0 10142097
20:00+19w2357100 0.0 101465
4 august, wed
wed423:00+19sw2253100 0.0 101528
02:00+17s2256100 0.0 101527
05:00+15s2283100 0.7 101537
08:00+18se237797 1.5 1015304
11:00+22sse3463100 0.0 1015803
14:00+23w335580 1.8 10141328
17:00+24wnw1348100 0.0 10131547
20:00+19nne3472100 0.0 101372
5 august, thu
thu523:00+18ne1176100 0.3 101412
02:00+18e118099 0.8 101311
05:00+17ne338592 0.0 101363
08:00+19ene347695 0.0 1013278
11:00+22e4559100 0.0 1012866
14:00+23e4560100 0.1 10111087
17:00+20ene6118597 1.9 1008362
20:00+19ene61386100 2.6 1006382
6 august, fri
fri623:00+18ene5997100 7.3 1005298
02:00+18e61297100 11.1 1001606
05:00+17sse6128986 2.2 999697
08:00+18s10178871 2.4 9991175
11:00+21ssw12166796 0.1 10001509
14:00+17ssw101588100 0.7 10011095
17:00+16wsw81392100 1.4 1004754
20:00+17sw7138995 1.5 1004842